Helicity
151 132 290 382 561 518 626 588 558 501 493 419 331 248 281 332 370 348 370 375 349 353 317 310 347 364 367 379 364 365 327 327
101 173 147 352 623 638 711 652 568 579 540 508 416 321 342 413 450 418 345 359 383 405 374 394 407 413 398 418 421 403 391 463
129 196 205 297 587 663 729 722 711 599 622 533 466 374 381 485 553 496 403 381 381 424 412 441 449 451 437 446 464 511 508 505
165 232 253 319 503 725 705 715 764 635 589 597 566 418 415 478 521 550 477 404 415 408 399 454 471 421 407 418 507 521 594 507
231 222 300 429 474 669 709 792 841 734 640 674 662 572 575 557 557 624 561 447 421 451 430 437 462 428 403 426 503 536 595 571
176 302 359 442 555 593 799 783 746 704 769 742 719 616 559 527 528 582 580 504 404 438 453 423 476 452 422 459 540 615 562 572
98 95 265 317 581 653 881 880 819 719 719 749 714 652 610 547 521 632 615 578 507 441 483 437 473 482 462 467 520 600 571 530
101 142 214 364 593 677 849 936 882 785 705 712 640 597 580 550 598 671 689 654 601 502 501 517 486 496 471 472 498 560 559 518
173 287 458 503 652 656 775 884 879 759 694 622 525 480 507 532 511 589 672 688 622 591 556 540 537 547 514 496 498 522 514 489
249 282 462 523 501 553 648 726 688 604 517 457 439 444 419 404 437 550 634 650 645 611 587 565 563 541 552 477 455 505 501 515
288 382 425 416 352 322 405 478 532 462 385 389 385 320 338 350 437 551 595 629 605 583 541 499 543 553 562 539 542 529 534 434
300 444 495 517 530 478 405 446 447 432 454 390 288 273 267 392 414 512 601 588 556 508 480 471 512 596 628 688 781 621 527 464
652 266 311 447 579 716 594 625 587 489 334 244 212 347 386 426 464 520 567 556 558 518 503 526 565 657 620 766 792 750 548 533
669 406 121 185 300 380 593 543 572 519 471 454 424 412 443 485 521 535 567 601 577 538 525 539 538 560 622 647 716 628 706 550
166 394 296 77 164 284 355 311 352 345 345 356 348 362 383 406 431 452 470 497 530 528 544 558 541 505 536 599 605 601 545 496
204 104 252 179 193 192 225 204 181 220 270 281 299 309 294 319 350 398 467 482 526 563 570 491 448 459 506 533 581 617 615 646
146 240 150 148 146 116 75 97 124 136 184 167 168 174 156 166 189 239 290 344 409 469 449 436 417 421 445 467 445 478 495 569
84 187 283 160 221 290 136 100 105 115 161 159 171 191 182 147 184 213 210 246 298 332 360 369 362 397 448 468 448 470 525 560
130 140 235 250 245 223 216 187 51 66 77 85 87 86 90 99 136 159 192 228 250 269 292 308 329 340 346 372 441 485 524 420
Wind_Speed
45 44 43 50 53 52 49 46 46 46 41 39 38 36 33 31 32 34 38 34 33 32 29 28 26 24 21 18 17 12 10 7
39 46 45 45 52 54 52 49 46 43 41 42 44 44 39 36 36 36 39 37 36 36 34 31 30 29 27 23 18 17 13 9
39 34 45 45 51 57 52 50 50 49 43 43 45 44 44 41 38 39 41 41 40 38 38 36 35 31 30 29 25 21 19 18
46 47 44 43 47 54 56 53 51 50 43 38 38 42 45 44 41 41 44 43 43 42 41 39 38 37 36 35 32 29 26 22
56 52 52 47 49 53 57 57 55 52 50 48 48 49 53 51 50 46 46 47 47 47 46 44 43 40 39 38 36 33 30 30
67 62 58 53 50 52 54 56 56 53 52 52 51 51 51 50 50 49 49 49 50 50 50 47 47 44 43 42 40 39 37 34
71 69 61 62 55 57 51 55 55 53 52 52 53 52 50 53 54 54 53 51 53 53 52 51 50 48 47 46 45 45 42 38
77 65 53 49 52 54 52 53 54 52 52 51 52 53 53 56 58 59 57 55 54 55 55 54 52 53 50 49 49 49 46 46
68 57 48 45 50 53 51 51 49 48 47 47 47 48 52 55 58 58 59 58 57 54 55 55 56 53 53 53 53 52 50 49
57 52 43 34 38 46 47 46 46 47 46 43 44 45 47 52 54 54 54 53 53 53 53 53 54 57 55 55 57 56 54 53
56 49 42 40 34 37 39 41 43 43 41 42 44 45 43 45 47 48 47 47 48 49 52 52 53 54 55 54 57 57 55 53
60 51 47 44 41 41 43 42 41 40 38 38 39 40 40 40 46 47 45 43 44 46 48 49 52 53 54 53 57 55 61 51
64 49 41 42 35 33 37 39 39 37 34 32 35 34 34 37 40 42 42 43 42 40 41 44 48 48 49 45 46 46 57 48
65 65 49 43 35 35 28 33 32 28 28 29 31 33 36 33 35 35 36 38 40 39 39 41 41 40 41 40 42 42 39 43
55 60 62 44 36 40 38 40 33 26 23 27 28 32 32 32 33 34 35 35 37 37 37 36 34 34 36 39 38 38 39 38
41 48 62 40 35 30 30 37 32 26 23 24 25 27 28 30 31 32 33 34 34 34 34 35 35 35 35 34 35 35 36 36
41 33 28 30 27 24 21 22 26 19 18 21 20 19 21 24 26 27 27 28 27 30 33 34 32 32 28 27 30 35 35 33
49 38 33 31 20 13 13 23 27 15 13 16 18 17 22 24 24 24 24 24 21 25 33 30 27 27 22 24 22 26 29 27
43 38 25 22 14 12 6 10 26 18 8 8 11 14 19 24 23 25 28 28 24 26 19 21 23 27 21 21 21 22 25 26
Wind_Direction
235 228 230 220 214 208 205 205 205 208 216 223 225 226 227 225 218 213 209 213 210 212 211 207 202 204 204 203 198 211 209 208
250 241 224 227 219 214 208 207 208 208 214 223 223 225 230 234 231 220 216 223 214 211 214 211 210 208 204 201 208 204 214 209
258 251 235 235 224 217 216 211 209 208 216 220 227 233 233 238 236 231 223 227 227 226 219 216 213 216 207 204 210 223 240 204
257 260 247 238 232 221 219 217 214 214 221 227 236 240 243 239 235 230 222 224 226 231 228 223 219 219 214 212 211 215 219 233
268 261 254 247 236 225 222 220 218 220 222 228 229 231 236 239 235 241 234 227 227 229 231 228 226 227 224 221 219 222 219 221
273 261 251 244 236 230 223 220 219 217 218 226 231 236 239 241 241 242 235 234 232 232 235 232 231 232 230 226 225 229 227 230
287 281 256 249 237 235 230 226 223 221 222 227 229 233 238 238 239 242 238 235 235 232 233 233 236 236 232 231 232 233 234 238
281 275 268 246 232 229 229 227 227 223 223 231 233 239 241 240 238 240 238 237 237 233 235 235 237 239 239 238 238 241 238 241
285 279 269 257 230 226 231 229 229 229 227 232 237 241 246 249 243 242 241 240 237 236 238 241 245 244 244 243 244 243 241 242
276 276 279 266 239 227 229 230 234 232 229 237 241 243 247 246 243 243 244 243 242 239 238 242 245 249 248 247 249 249 246 245
277 273 270 262 250 232 228 229 231 225 229 240 245 247 245 245 242 240 241 243 243 241 243 244 248 249 250 249 254 253 253 255
290 286 280 273 261 245 237 236 232 234 239 244 247 253 245 244 240 240 238 239 242 242 246 248 252 253 253 252 258 254 253 255
300 293 290 285 275 257 250 237 237 239 237 242 252 252 249 245 243 241 240 241 244 243 246 252 257 259 260 260 261 256 247 253
305 290 280 281 278 274 263 263 249 243 240 247 254 255 253 246 245 244 242 242 244 250 251 254 256 258 262 259 262 255 255 250
315 299 291 277 274 276 272 264 263 253 249 252 254 256 253 252 251 248 247 247 246 249 253 254 256 257 258 258 259 255 241 241
311 311 309 285 280 282 271 261 262 259 262 259 260 262 263 261 258 257 255 254 253 253 253 259 261 261 261 257 255 252 249 244
299 293 317 338 310 278 277 277 265 262 261 262 269 268 268 267 261 255 253 249 247 249 253 255 257 262 255 250 249 252 245 239
292 279 268 278 313 325 305 293 277 282 270 273 276 282 277 274 269 267 261 257 250 256 263 264 261 266 247 245 239 245 244 235
278 277 279 278 299 292 329 284 280 291 299 282 281 275 273 275 278 275 272 272 268 271 265 267 267 272 243 224 227 251 253 243